Regional Weather Roundup
Issued by NWS

Home | Current Version | Previous Version | Text Only | Print | Product List | Glossary On
Versions: 1 2 3 4 5 6 7 8 9 10 11 12 13 14 15 16 17 18 19 20 21 22 23 24 25 26 27 28 29 30 31 32 33 34 35 36 37 38 39 40 41 42 43 44 45 46 47 48 49 50
000
ASUS42 KTBW 191117
RWRFL
FLORIDA REGIONAL WEATHER ROUNDUP
NATIONAL WEATHER SERVICE TAMPA BAY RUSKIN FL
700 AM EDT TUE SEP 19 2017

NOTE: "FAIR" INDICATES FEW OR NO CLOUDS BELOW 12,000 FEET WITH NO
SIGNIFICANT WEATHER AND/OR OBSTRUCTIONS TO VISIBILITY.

FLZ001>010-012>015-112-114-115-191200-
PANHANDLE FLORIDA

CITY           SKY/WX    TMP DP  RH WIND       PRES   REMARKS
PENSACOLA      CLEAR     79  74  84 W5        29.98R
PENSACOLA NAS  MOCLDY    72  71  97 CALM      29.97R
MILTON NAS     PTCLDY    73  73 100 W3        29.98
CRESTVIEW      PTCLDY    72  70  93 W3        29.99R
DUKE FIELD     FAIR      73  72  97 CALM      29.98R
VALPARAISO     PTCLDY    74  72  94 CALM      29.97R
MARY ESTHER    CLEAR     73  71  95 CALM      29.96R
PANAMA CITY    FAIR      72  70  93 NW3       29.96R
TYNDALL AFB    CLEAR     74  73  96 SE3       29.97R FOG
APALACHICOLA   PTCLDY    71  71 100 CALM      29.97R FOG

STATION/POSITION SKY/WX   TEMP    WIND        PRES    WAVE   SWELL
                          AIR SEA DIR/SP/G            HT/PER HT/PER
                          (F)     (DEG/KT/KT) (MB)    (FT/S) (FT/S)
30.1N   87.6W              81 82  260/  6/  8 1014.8R
29.2N   88.2W              81 84  240/  4/  6 1015.3
28.8N   86.0W              81 82  310/  8/  8 1014.8R   0
PANAMA CITY BEAC           79     320/  7/  9 1015.2R
TOWER C                    80                 1015.6R
28.5N   84.5W              81 82  350/  6/  8 1014.7R   1

$$
FLZ011-016>038-118-127-128-134-139-239-191200-
NORTH FLORIDA

CITY           SKY/WX    TMP DP  RH WIND       PRES   REMARKS
MARIANNA       PTCLDY    72  71  97 S3        29.97R
TALLAHASSEE    PTCLDY    71  69  93 CALM      29.97R
PERRY          CLEAR     67  65  95 CALM      29.99R
LIVE OAK       PTCLDY    64  64 100 CALM      30.00R FOG
CROSS CITY     CLEAR     64  63  95 CALM      30.03R
LAKE CITY      FAIR      63  63 100 NW3       29.99R
GAINESVILLE    CLEAR     64  63  96 CALM      30.01R
WILLISTON      CLEAR     66  64  94 CALM      29.98R
PALATKA        FOG       64  64 100 W3        29.98R VSB 1/2
MAYPORT NAS    CLEAR     73  73 100 NW3       29.97R
JACKSONVILLE   PTCLDY    68  68 100 CALM      29.97R
JAX NAS        CLEAR     72  70  93 CALM      29.98R
JAX CECIL      CLEAR     64  64 100 CALM      29.98R
FERNANDINA BEA FAIR      70  68  94 MISG      29.97R
ST AUGUSTINE   CLEAR     70  68  93 CALM      29.98R
PALM COAST     CLEAR    N/A N/A N/A CALM      29.97R

STATION/POSITION SKY/WX   TEMP    WIND        PRES    WAVE   SWELL
                          AIR SEA DIR/SP/G            HT/PER HT/PER
                          (F)     (DEG/KT/KT) (MB)    (FT/S) (FT/S)
SHELL POINT      NOT AVBL
KEATON BEACH               72      80/  3/  4 1014.9R
CEDAR KEY                  74      20/  2/  2 1015.5R
FERNANDINA                 74 81  310/  2/  4 1015.7R
30.7N   81.3W                 81                N/A     4/11   2/11
MAYPORT                    74 81  310/  2/  3 1015.3R
31.4N   80.9W              78 80  280/  4/  6 1014.5R   4/12   3/12
ST AUGUSTINE               80 81   70/  5/  6 1015.1R

$$
FLZ040-043>046-052-053-057-058-063-144-191200-
INTERIOR CENTRAL FLORIDA

CITY           SKY/WX    TMP DP  RH WIND       PRES   REMARKS
OCALA          CLEAR     63  63 100 CALM      29.98R FOG
THE VILLAGES     N/A     68  68 100 CALM      29.88R
LEESBURG       CLEAR     72  71  97 NW3       29.98R FOG
SANFORD        CLEAR     74  72  93 N3        29.96R
ORLANDO INTL   MOCLDY    75  74  96 N7        29.96R
KISSIMMEE      CLOUDY    76  73  91 CALM      29.97R
WINTER HAVEN   CLOUDY    75  72  90 NE5       29.97R
LAKELAND       CLOUDY    73  73 100 N3        29.97R
SEBRING        FAIR      76  71  84 N3        29.95R
OKEECHOBEE     MOCLDY    72  72 100 NE3       29.93S

$$
FLZ041-047-054-059-064-141-147-191200-
EAST CENTRAL FLORIDA

CITY           SKY/WX    TMP DP  RH WIND       PRES   REMARKS
ORMOND BEACH   CLEAR     68  68 100 N6        29.96
DAYTONA BEACH  PTCLDY    72  71  97 W3        29.96R
NEW SMYRNA BEA PTCLDY    73  72  94 CALM      29.96
JFK SPACE CTR  MOCLDY    77  77 100 CALM      29.94R
TITUSVILLE     PTCLDY    77  75  94 NW6       29.96
CAPE CANAVERAL MOCLDY    77  74  90 CALM      29.93R
PATRICK AFB    CLOUDY    79  75  89 N5        29.93R
MELBOURNE      CLOUDY    76  73  91 S7        29.94R
VERO BEACH     CLOUDY    74  74 100 N5        29.94S
FT PIERCE      MOCLDY    74  74 100 NE5       29.93S
STUART         PTCLDY    77  75  94 NW6G12    29.93S

STATION/POSITION SKY/WX   TEMP    WIND        PRES    WAVE   SWELL
                          AIR SEA DIR/SP/G            HT/PER HT/PER
                          (F)     (DEG/KT/KT) (MB)    (FT/S) (FT/S)
28.5N   80.2W              83 82   60/  8/ 12 1014.7
28.9N   78.5W                 84   10/  6/ 10 1013.7R   8/12   8/12
TRIDENT PIER               77 83  300/  2/  3 1015.4R
28.4N   80.5W                 83                N/A     4/12   3/12
27.5N   80.2W                 82                N/A     5/12   3/12

$$
FLZ050-056-061-142-242-148-248-149-249-151-251-155-255-
160-260-191200-
WEST CENTRAL FLORIDA

CITY           SKY/WX    TMP DP  RH WIND       PRES   REMARKS
CRYSTAL RIVER  FAIR     N/A N/A N/A CALM      29.98R
INVERNESS      FAIR      64  64 100 CALM      29.98R FOG
BROOKSVILLE    CLEAR     65  65 100 CALM      29.98S FOG
CLEARWATER AIR FAIR      72  70  94 CALM      29.97R
ST PETE CLEARW CLEAR     77  73  87 NE5       29.97R
TAMPA INTL     PTCLDY    75  71  87 NE3       29.97R
TAMPA EXEC     CLOUDY    72  70  94 CALM      29.98R FOG
PLANT CITY     CLOUDY    73  73 100 CALM      29.99R
MACDILL AFB    CLEAR     71  71 100 NE3       29.97R
PETER O KNIGHT MOCLDY   N/A N/A N/A CALM      29.97R
ST PETERSBURG  PTCLDY    78  73  84 N3        29.95R
SARASOTA       PTCLDY    75  74  96 NE5       29.95R
VENICE         CLOUDY    75  72  88 NE5       29.96R

STATION/POSITION SKY/WX   TEMP    WIND        PRES    WAVE   SWELL
                          AIR SEA DIR/SP/G            HT/PER HT/PER
                          (F)     (DEG/KT/KT) (MB)    (FT/S) (FT/S)
27.3N   84.2W                 82                N/A     1/ 3
CLEARWATER BEACH           76 84   30/  4/  5 1014.9R
MIDDLE TAMPA BAY           78      70/  8/ 10 1014.6R
VENICE                     74 83   20/  5/  6 1013.9R

$$
FLZ066-069-070-075>078-162-262-165-265-191200-
SOUTHWEST FLORIDA AND KEYS

CITY           SKY/WX    TMP DP  RH WIND       PRES   REMARKS
PUNTA GORDA    MOCLDY    74  72  93 NE3       29.96R
FT MYERS       MOCLDY    75  75 100 NE6       29.93R
SOUTHWEST INTL PTCLDY    75  72  90 NE3       29.94R
NAPLES         PTCLDY    76  73  91 N6        29.93R
IMMOKALEE      FAIR      73  73 100 CALM      29.94S
MARATHON       CLEAR     79  73  82 CALM      29.91S
KEY WEST NAS     N/A    N/A N/A N/A MISG      29.92S
KEY WEST INTL  CLEAR     79  76  90 CALM      29.93S

STATION/POSITION SKY/WX   TEMP    WIND        PRES    WAVE   SWELL
                          AIR SEA DIR/SP/G            HT/PER HT/PER
                          (F)     (DEG/KT/KT) (MB)    (FT/S) (FT/S)
NAPLES           NOT AVBL
DRY TORTUGAS               82     180/  1/  2 1013.6S
SAND KEY                   82                 1013.9S
MOLASSES REEF              81 85  360/  1/  2 1013.5R

$$
FLZ067-068-071>074-168-172>174-191200-
SOUTHEAST FLORIDA

CITY           SKY/WX    TMP DP  RH WIND       PRES   REMARKS
W PALM BEACH   PTCLDY    77  73  87 W3        29.93R
FT LAUDER-EXEC MOCLDY    78  75  90 N6        29.91S
FT LAUDERDALE  PTCLDY    80  77  90 E6        29.90S
POMPANO BEACH  CLOUDY    78  75  90 W5        29.92R
PEMBROKE PINES CLEAR     78  75  90 N3        29.92S
OPA LOCKA      CLEAR     79  79 100 N5        29.92R
MIAMI          PTCLDY    81  78  91 W3        29.91S
WEST KENDALL   CLEAR     76  74  93 NW5       29.91S
HOMESTEAD      CLEAR     75  75 100 CALM      29.91R

STATION/POSITION SKY/WX   TEMP    WIND        PRES    WAVE   SWELL
                          AIR SEA DIR/SP/G            HT/PER HT/PER
                          (F)     (DEG/KT/KT) (MB)    (FT/S) (FT/S)
PORT EVERGLADES            83     110/  3/  7 1012.8R
VIRGINIA KEY               80 85  260/  3/  5 1012.3R
LAKE WORTH                        290/  2/  2   N/A
FOWEY ROCKS                81 84  280/  5/  5 1013.4R
SETTLEMENT POINT           81     140/  4/  5 1013.2R

$$




USA.gov is the U.S. government's official web portal to all federal, state and local government web resources and services.